Location: Lane
(33.5226°N, 79.8788°W)
Time: 21:54:24
(UTC+00:00)

Vanguard 2 Rocket - Pass Details

Date: 03 October 2022
Orbit: 555 x 3321 km, 32.9° (Epoch: 28 November)

Event Time Altitude Azimuth Distance (km) Brightness Sun altitude
Exits shadow 10:42:41 - 250° (WSW) 2,407 8.5 -7.6°
Reaches altitude 10° 10:44:20 10° 232° (SW) 2,067 8.3 -7.3°
Maximum altitude 10:45:18 11° 220° (SW) 1,966 8.3 -7.1°
Drops below altitude 10° 10:46:12 10° 207° (SSW) 1,950 8.4 -6.9°
Sets 10:50:13 0° 165° (SSE) 2,711 9.6 -6.1°
